Overview Statistics Trail Chart Weather Telemetry Raw packets
 

This is the latest recevied weather packets stored in our database for station/object EB1BWO-11. If no packets are shown the sender has not sent any weather packets the latest 10 day(s).

<< 24 25 26 27 28 29 30 >>
Time Temp. Humidity Pressure Rain* Wind** Luminosity Snow
1787983141 16.67° C 66% 1020.5 hPa - - - -
1787982240 16.11° C 67% 1020.6 hPa - - - -
1787981342 16.67° C 66% 1020.7 hPa - - - -
1787980439 16.67° C 66% 1020.7 hPa - - - -
1787979539 16.67° C 66% 1020.9 hPa - - - -
1787978639 16.67° C 66% 1020.8 hPa - - - -
1787977738 17.22° C 66% 1020.9 hPa - - - -
1787976838 17.22° C 66% 1021 hPa - - - -
1787975938 17.78° C 65% 1021 hPa - - - -
1787975037 17.78° C 66% 1021 hPa - - - -
1787974137 17.78° C 66% 1021.1 hPa - - - -
1787973236 17.78° C 66% 1021.1 hPa - - - -
1787972335 17.78° C 66% 1021.1 hPa - - - -
1787971435 17.78° C 66% 1020.9 hPa - - - -
1787970535 17.78° C 66% 1021 hPa - - - -
1787969634 17.78° C 65% 1021 hPa - - - -
1787968733 17.78° C 65% 1021 hPa - - - -
1787967833 18.33° C 64% 1021 hPa - - - -
1787966932 18.33° C 64% 1021 hPa - - - -
1787966032 18.89° C 64% 1021.1 hPa - - - -
1787965131 18.89° C 64% 1021.2 hPa - - - -
1787964231 19.44° C 64% 1021.5 hPa - - - -
1787963330 19.44° C 63% 1021.8 hPa - - - -
1787962429 19.44° C 64% 1021.9 hPa - - - -
1787961529 20° C 64% 1022.1 hPa - - - -

* Rain since midnight (hover to see other rain measurements)
** Current wind speed in m/s (hover to see current wind gust speed)